[[{"header":{"parameterUnit":"m.s-1","parameterCategory":1,"la1":30.2991,"la2":30.254,"lo1":-89.0895,"lo2":-89.0444,"dy":0.0017,"dx":0.0017,"nx":28,"ny":28,"refTime":"2023-10-02T03:00:00:Z","depth":0,"parameterNumber":2,"parameterNumberName":"U-component_of_WINDS"},"data":[0,0,0,0,0,0,0,0,0,0,0,0,0,0,0,0,0,0,0,0,0,0,0,0,0,0,0,0,0,0,0,0,0,0,0,0,0,0,0,0,0,0,0,0,0,0,0,0,0,0,0,0,0,0,0,0,0,0,-5.5603,-5.5602,0,-5.5564,-5.5564,-5.5563,-5.5415,-5.5412,-5.5409,-5.5405,-5.5369,-5.5371,-5.5373,0,0,0,0,0,0,0,0,0,0,0,0,0,-5.5551,-5.5553,-5.5603,-5.5602,-5.5602,-5.5564,-5.5564,-5.5563,-5.5416,-5.5412,-5.5408,-5.5404,-5.5368,-5.537,-5.5373,0,0,0,0,0,0,0,0,0,0,0,0,0,-5.555,-5.5554,-5.5603,-5.5524,-5.5516,-5.5565,-5.5564,-5.5563,-5.5417,-5.5412,-5.5407,-5.5402,-5.5367,-5.537,-5.5373,-5.5496,0,0,-5.5383,-5.5385,0,0,0,0,0,0,0,0,-5.555,-5.5552,-5.5536,-5.5529,-5.5521,-5.5489,-5.5532,-5.5541,-5.5418,-5.5455,-5.5405,-5.5399,-5.5413,-5.5412,-5.5416,-5.5494,-5.5492,-5.5384,-5.5386,-5.5387,-5.5388,0,0,0,0,0,0,0,-5.555,-5.5552,-5.5587,-5.5536,-5.5527,-5.5491,-5.5485,-5.5533,-5.5463,-5.5451,-5.544,-5.5438,-5.5408,-5.5413,-5.5414,-5.5492,-5.5384,-5.5386,-5.5389,-5.539,-5.5668,-5.5673,0,0,0,0,0,0,-5.5561,-5.5554,-5.5589,-5.5586,-5.5523,-5.5496,-5.549,-5.5505,-5.5462,-5.5451,-5.5442,-5.5431,-5.541,-5.5411,-5.5412,-5.5552,-5.5387,-5.539,-5.5392,-5.5663,-5.5669,-5.5675,0,0,0,0,0,0,-5.5561,-5.5566,-5.559,-5.5567,-5.5567,-5.5502,-5.5521,-5.5507,-5.5512,-5.5455,-5.5442,-5.546,-5.5406,-5.5408,-5.5476,-5.5548,-5.5392,-5.5395,-5.5656,-5.5665,-5.5672,-5.5832,0,0,0,0,0,0,-5.556,-5.5566,-5.5611,-5.5569,-5.5569,-5.5654,-5.5525,-5.551,-5.5518,-5.5503,-5.5469,-5.5458,-5.5402,-5.5472,-5.5479,-5.555,-5.5397,-5.5649,-5.566,-5.567,-5.582,-5.5845,-5.5866,0,0,0,0,0,-5.5558,-5.5658,-5.5614,-5.5619,-5.5624,-5.5658,-5.5658,-5.5591,-5.5524,-5.5569,-5.5533,-5.5459,-5.554,-5.548,-5.5487,-5.556,-5.5645,-5.5657,-5.5669,-5.581,-5.584,-5.5866,0,0,0,0,0,0,-5.5711,-5.5651,-5.5602,-5.5691,-5.5681,-5.5633,-5.5687,-5.5626,-5.5635,-5.562,-5.5538,-5.5532,-5.5612,-5.5593,-5.5527,-5.5677,-5.558,-5.5594,-5.5685,-5.5713,-5.5736,-5.5737,-5.54,0,0,0,0,0,-5.5755,-5.5787,-5.5734,-5.5817,-5.5815,-5.5753,-5.5765,-5.5715,-5.5701,-5.5696,-5.5665,-5.5656,-5.5678,-5.5695,-5.5713,-5.5818,-5.5808,-5.5872,-5.5895,-5.5914,-5.5927,-5.598,-5.6008,-5.5715,-5.5715,-5.5715,0,0,-5.5846,-5.5817,-5.5842,-5.5847,-5.5833,-5.5869,-5.575,-5.5793,-5.5818,-5.5703,-5.5764,-5.5742,-5.5726,-5.5813,-5.585,-5.58,-5.6006,-5.593,-5.5946,-5.5947,-5.5996,-5.6024,-5.6048,-5.5724,-5.5722,-5.5721,0,0,-5.6029,-5.6011,-5.6078,-5.6068,-5.6048,-5.6007,-5.6024,-5.5986,-5.5966,-5.6027,-5.5941,-5.5972,-5.6013,-5.6005,-5.6007,-5.6191,-5.6123,-5.6199,-5.6318,-5.6371,-5.6394,-5.6414,-5.6478,-5.6502,-5.6212,-5.6213,-5.6213,0,-5.6144,-5.6193,-5.6121,-5.6169,-5.6174,-5.6072,-5.614,-5.6133,-5.6122,-5.6128,-5.6073,-5.6123,-5.6105,-5.6188,-5.6234,-5.6239,-5.6255,-5.6201,-5.6397,-5.6416,-5.6434,-5.6494,-5.6518,-5.6222,-5.6221,-5.622,-5.6219,0,-5.6335,-5.6372,-5.6429,-5.6419,-5.6431,-5.6489,-5.6427,-5.6448,-5.6398,-5.6363,-5.6427,-5.6402,-5.6413,-5.643,-5.6382,-5.6508,-5.6477,-5.6411,-5.6312,-5.6472,-5.6527,-5.6549,-5.6235,-5.6232,-5.6229,-5.6227,0,0,-5.661,-5.6561,-5.6583,-5.6578,-5.6551,-5.6577,-5.6632,-5.6643,-5.6662,-5.6659,-5.6702,-5.6741,-5.668,-5.6682,-5.6632,-5.668,-5.6826,-5.6607,-5.6606,-5.6647,-5.6962,-5.701,-5.7037,-5.6782,-5.6787,-5.679,-5.6962,0,-5.6782,-5.6871,-5.6809,-5.6908,-5.694,-5.6846,-5.6893,-5.6883,-5.6852,-5.6876,-5.6843,-5.6871,-5.6789,-5.679,-5.6833,-5.6799,-5.6887,-5.6786,-5.6821,-5.6823,-5.6825,-5.7066,-5.7116,-5.728,-5.6984,-5.6987,-5.699,0,-5.6994,-5.7,-5.7102,-5.7069,-5.708,-5.7124,-5.7129,-5.7154,-5.714,-5.7115,-5.7119,-5.7058,-5.711,-5.7016,-5.7086,-5.7019,-5.703,-5.7017,-5.7021,-5.7019,-5.6914,-5.7069,-5.7331,-5.7355,-5.7023,-5.7021,-5.7018,0,-5.7181,-5.7215,-5.728,-5.7279,-5.7243,-5.7276,-5.7262,-5.7244,-5.7255,-5.726,-5.7266,-5.7279,-5.7285,-5.7297,-5.7241,-5.7178,-5.732,-5.722,-5.7299,-5.7301,-5.733,-5.7329,-5.7596,-5.7344,-5.7343,-5.7343,-5.7342,0,-5.7378,-5.7444,-5.7364,-5.7404,-5.7475,-5.7405,-5.7479,-5.7455,-5.7441,-5.7475,-5.7396,-5.743,-5.7355,-5.7383,-5.734,-5.7405,-5.7409,-5.739,-5.7377,-5.7395,-5.7398,-5.7399,-5.7385,-5.7349,-5.7348,-5.7347,-5.7346,0,-5.7598,-5.7546,-5.7611,-5.7572,-5.7564,-5.7619,-5.7585,-5.7621,-5.7587,-5.7632,-5.7639,-5.7585,-5.7613,-5.756,-5.7581,-5.7552,-5.7643,-5.7614,-5.7647,-5.7637,-5.7718,-5.7711,-5.7993,-5.8026,-5.7756,-5.7759,-5.7761,0,-5.7725,-5.7773,-5.774,-5.7757,-5.7748,-5.7777,-5.7788,-5.7722,-5.7737,-5.7727,-5.7764,-5.7786,-5.7799,-5.7849,-5.7812,-5.7828,-5.7797,-5.7896,-5.7799,-5.7816,-5.7796,-5.7793,-5.7797,-5.7914,-5.7918,-5.792,-5.7923,0,-5.7956,-5.7929,-5.7947,-5.7957,-5.7972,-5.7977,-5.7977,-5.7996,-5.7926,-5.7947,-5.7974,-5.7985,-5.8007,-5.803,-5.8038,-5.8025,-5.7963,-5.7954,-5.7973,-5.799,-5.8006,-5.7996,-5.7698,-5.7947,-5.7944,-5.7943,-5.7941,-5.794,-5.8131,-5.817,-5.8152,-5.8176,-5.8169,-5.817,-5.8202,-5.8172,-5.8194,-5.8206,-5.8167,-5.8204,-5.8191,-5.8195,-5.819,-5.8218,-5.8174,-5.8202,-5.8208,-5.8215,-5.8227,-5.8005,-5.822,-5.8219,-5.8218,-5.8218,-5.8217,0,-5.8356,-5.8341,-5.8363,-5.8364,-5.8383,-5.8324,-5.8321,-5.8341,-5.8374,-5.8367,-5.8382,-5.8415,-5.8437,-5.8404,-5.842,-5.8449,-5.8421,-5.8456,-5.8451,-5.8449,-5.8267,-5.8247,-5.8478,-5.8478,-5.8478,-5.8478,-5.8478,-5.8478,-5.8474,-5.8536,-5.8508,-5.8566,-5.8551,-5.8585,-5.8589,-5.859,-5.8584,-5.8624,-5.8642,-5.862,-5.8603,-5.8618,-5.8636,-5.8625,-5.8634,-5.8678,-5.8658,-5.8487,-5.8462,-5.8437,-5.8419,-5.8682,-5.8682,-5.8837,-5.8839,-5.884]},{"header":{"parameterUnit":"m.s-1","parameterCategory":1,"la1":30.2991,"la2":30.254,"lo1":-89.0895,"lo2":-89.0444,"dy":0.0017,"dx":0.0017,"nx":28,"ny":28,"refTime":"2023-10-02T03:00:00:Z","depth":0,"parameterNumber":3,"parameterNumberName":"V-component_of_WINDS"},"data":[0,0,0,0,0,0,0,0,0,0,0,0,0,0,0,0,0,0,0,0,0,0,0,0,0,0,0,0,0,0,0,0,0,0,0,0,0,0,0,0,0,0,0,0,0,0,0,0,0,0,0,0,0,0,0,0,0,0,1.0352,1.0352,0,1.0355,1.0355,1.0355,1.0413,1.0414,1.0416,1.0417,1.0415,1.0413,1.0412,0,0,0,0,0,0,0,0,0,0,0,0,0,1.0392,1.0391,1.0352,1.0352,1.0352,1.0355,1.0355,1.0355,1.0412,1.0414,1.0416,1.0418,1.0415,1.0414,1.0412,0,0,0,0,0,0,0,0,0,0,0,0,0,1.0382,1.039,1.0352,1.0381,1.0384,1.0355,1.0355,1.0355,1.0412,1.0414,1.0417,1.0419,1.0416,1.0414,1.0412,1.0353,0,0,1.0405,1.0404,0,0,0,0,0,0,0,0,1.0383,1.0381,1.0377,1.0379,1.0382,1.0386,1.0368,1.0354,1.0411,1.0401,1.0417,1.042,1.0403,1.0402,1.0398,1.0353,1.0353,1.0405,1.0403,1.0402,1.0402,0,0,0,0,0,0,0,1.0383,1.0381,1.0353,1.0376,1.038,1.0393,1.0394,1.0366,1.0389,1.0402,1.0406,1.0406,1.0405,1.0399,1.0398,1.0353,1.0405,1.0403,1.0402,1.0401,1.0263,1.0261,0,0,0,0,0,0,1.0381,1.0381,1.0353,1.0353,1.0388,1.039,1.0392,1.0382,1.039,1.0393,1.0404,1.0409,1.0402,1.04,1.0398,1.0331,1.0403,1.04,1.0399,1.0265,1.0262,1.026,0,0,0,0,0,0,1.0381,1.0378,1.0353,1.0368,1.0366,1.0387,1.0376,1.0381,1.0376,1.0392,1.0396,1.0395,1.0404,1.0401,1.0365,1.0332,1.0399,1.0398,1.0268,1.0264,1.0261,1.0195,0,0,0,0,0,0,1.0382,1.0377,1.0356,1.0367,1.0365,1.032,1.0374,1.038,1.0373,1.0379,1.0384,1.0387,1.0405,1.0368,1.0363,1.033,1.0396,1.0271,1.0266,1.0262,1.0201,1.019,1.0181,0,0,0,0,0,1.0383,1.0336,1.0355,1.0351,1.0339,1.0318,1.0316,1.0341,1.037,1.0348,1.0359,1.0386,1.0337,1.0364,1.0358,1.0324,1.0273,1.0268,1.0263,1.0205,1.0192,1.0181,0,0,0,0,0,0,1.0317,1.0338,1.0359,1.0314,1.0314,1.0328,1.0301,1.0326,1.0316,1.0322,1.0351,1.0352,1.0311,1.0314,1.0344,1.0269,1.031,1.0303,1.0268,1.0256,1.0246,1.0245,1.0394,0,0,0,0,0,1.0298,1.0281,1.0299,1.0257,1.0257,1.0279,1.027,1.029,1.029,1.029,1.0298,1.0296,1.028,1.0268,1.0255,1.0203,1.0204,1.0177,1.0167,1.0159,1.0152,1.0125,1.0113,1.0242,1.0242,1.0243,0,0,1.0256,1.0266,1.0252,1.0244,1.0247,1.0227,1.0278,1.0255,1.024,1.0286,1.0252,1.0258,1.0258,1.0214,1.0195,1.0215,1.0117,1.0152,1.0146,1.0143,1.0119,1.0106,1.0095,1.0239,1.024,1.024,0,0,1.0171,1.0177,1.0143,1.0146,1.015,1.0166,1.0158,1.0168,1.0175,1.0142,1.0177,1.0159,1.0131,1.013,1.0126,1.0044,1.0069,1.0039,0.9986,0.996,0.995,0.9941,0.9911,0.99,1.0032,1.0032,1.0032,0,1.0118,1.0092,1.0122,1.0098,1.0093,1.0137,1.0103,1.0103,1.0101,1.0096,1.0121,1.0088,1.0091,1.0047,1.0028,1.0023,1.0014,1.0037,0.9949,0.994,0.9933,0.9904,0.9893,1.0028,1.0029,1.0029,1.0029,0,1.0027,1.0008,0.998,0.998,0.9973,0.9943,0.9969,0.9958,0.9978,0.9991,0.9958,0.9964,0.9953,0.9944,0.9963,0.9904,0.9916,0.9944,0.9985,0.9916,0.989,0.9879,1.0023,1.0024,1.0025,1.0026,0,0,0.9896,0.9917,0.9906,0.9907,0.9917,0.9902,0.9875,0.9866,0.9856,0.9854,0.9831,0.9808,0.9835,0.983,0.985,0.9827,0.9761,0.9858,0.9858,0.9839,0.9696,0.9674,0.9661,0.978,0.9778,0.9776,0.9696,0,0.9813,0.977,0.9798,0.9749,0.9732,0.9775,0.9751,0.9754,0.9766,0.9752,0.9765,0.9748,0.9785,0.9783,0.9762,0.9774,0.9733,0.978,0.9757,0.9756,0.9754,0.9647,0.9623,0.9547,0.9686,0.9684,0.9683,0,0.971,0.9707,0.9656,0.9671,0.9665,0.9643,0.9639,0.9626,0.963,0.964,0.9637,0.9663,0.9637,0.968,0.9643,0.9675,0.9668,0.9672,0.967,0.9667,0.9713,0.964,0.9523,0.9511,0.9667,0.9669,0.967,0,0.9619,0.9602,0.957,0.957,0.9586,0.957,0.9576,0.9583,0.9577,0.9572,0.9568,0.956,0.9555,0.9548,0.9571,0.96,0.9532,0.9576,0.9539,0.9538,0.952,0.952,0.9399,0.9518,0.9518,0.9518,0.9519,0,0.9522,0.9489,0.953,0.951,0.9475,0.9508,0.9472,0.9482,0.9489,0.9471,0.9508,0.949,0.9522,0.9508,0.9526,0.9493,0.9491,0.9498,0.9502,0.9493,0.9492,0.9487,0.9492,0.9515,0.9516,0.9517,0.9517,0,0.9413,0.9439,0.9407,0.9427,0.9431,0.9404,0.942,0.9402,0.9419,0.9396,0.9392,0.9417,0.9402,0.9425,0.9412,0.9424,0.9379,0.9393,0.9378,0.9381,0.9342,0.9344,0.9211,0.9195,0.9326,0.9324,0.9323,0,0.9349,0.9325,0.9343,0.9336,0.934,0.9326,0.9321,0.9353,0.9346,0.9351,0.9332,0.9321,0.9313,0.9287,0.9303,0.9293,0.9306,0.926,0.9305,0.9297,0.9304,0.9305,0.9303,0.925,0.9249,0.9247,0.9246,0,0.9232,0.9247,0.9238,0.9235,0.9229,0.9227,0.9228,0.9219,0.9253,0.9243,0.9229,0.9224,0.9213,0.9201,0.9196,0.9201,0.9228,0.9233,0.9223,0.9213,0.9205,0.9208,0.9351,0.9235,0.9236,0.9237,0.9238,0.9238,0.9143,0.9124,0.9135,0.9125,0.913,0.913,0.9115,0.9131,0.9121,0.9115,0.9135,0.9117,0.9123,0.912,0.9122,0.9108,0.9128,0.9114,0.9111,0.9106,0.91,0.9209,0.9107,0.9108,0.9108,0.9108,0.9109,0,0.9027,0.9037,0.9028,0.9029,0.9021,0.9052,0.9055,0.9046,0.9031,0.9035,0.9028,0.9013,0.9003,0.9019,0.9011,0.8996,0.9009,0.8993,0.8993,0.8994,0.9083,0.9091,0.8983,0.8983,0.8983,0.8983,0.8983,0.8983,0.8966,0.8936,0.8953,0.8926,0.8936,0.892,0.892,0.892,0.8925,0.8907,0.8899,0.8911,0.892,0.8914,0.8905,0.891,0.8905,0.8884,0.8893,0.8975,0.8988,0.8999,0.9007,0.8883,0.8883,0.8806,0.8805,0.8804]}]]